VOE81UD LFBD-LFML

Flight info

Callsign VOE81UD
Flight time 0h 51m
Altitude 33000
Route OBLOC DCT SECHE DCT SOVET DCT FJR
Aircraft A319/M-SDE3FGHIRWY/LB1

Departure

Time 2026-04-30 08:14
Airport Bordeaux–Mérignac Airport (LFBD)

Arrival

Time 2026-04-30 09:06
Airport Marseille Provence Airport (LFML)
Time Latitude Longitude Altitude Speed Heading
2026-04-30 07:52 44.82950 -0.70624 170 ft 0 kts 136°
2026-04-30 08:05 44.82953 -0.70629 142 ft 3 kts 136°
2026-04-30 08:05 44.82972 -0.70655 173 ft 4 kts 135°
2026-04-30 08:05 44.82991 -0.70682 169 ft 4 kts 135°
2026-04-30 08:06 44.83011 -0.70707 169 ft 4 kts 152°
2026-04-30 08:06 44.83035 -0.70718 169 ft 2 kts 176°
2026-04-30 08:06 44.83037 -0.70718 169 ft 0 kts 177°
2026-04-30 08:09 44.83033 -0.70720 169 ft 2 kts 194°
2026-04-30 08:09 44.83018 -0.70741 169 ft 5 kts 228°
2026-04-30 08:09 44.82981 -0.70781 170 ft 8 kts 212°
2026-04-30 08:09 44.82933 -0.70834 170 ft 9 kts 238°
2026-04-30 08:10 44.82948 -0.70924 170 ft 10 kts 323°
2026-04-30 08:10 44.83009 -0.70881 169 ft 11 kts 45°
2026-04-30 08:10 44.83067 -0.70798 169 ft 13 kts 45°
2026-04-30 08:10 44.83130 -0.70700 168 ft 14 kts 55°
2026-04-30 08:11 44.83203 -0.70603 167 ft 15 kts 43°
2026-04-30 08:11 44.83283 -0.70491 166 ft 17 kts 46°
2026-04-30 08:11 44.83370 -0.70367 165 ft 19 kts 45°
2026-04-30 08:11 44.83464 -0.70232 164 ft 20 kts 44°
2026-04-30 08:12 44.83565 -0.70088 162 ft 21 kts 46°
2026-04-30 08:12 44.83648 -0.70005 161 ft 14 kts
2026-04-30 08:12 44.83695 -0.70027 161 ft 0 kts 337°
2026-04-30 08:12 44.83696 -0.70028 161 ft 1 kts 336°
2026-04-30 08:13 44.83708 -0.70035 161 ft 3 kts 336°
2026-04-30 08:13 44.83761 -0.70067 161 ft 13 kts 336°
2026-04-30 08:13 44.83839 -0.70122 161 ft 11 kts 302°
2026-04-30 08:13 44.83816 -0.70179 161 ft 4 kts 225°
2026-04-30 08:14 44.83722 -0.70314 162 ft 54 kts 225°
2026-04-30 08:14 44.83262 -0.70968 169 ft 130 kts 226°
2026-04-30 08:14 44.82517 -0.72030 472 ft 161 kts 223°
2026-04-30 08:14 44.81714 -0.73169 1293 ft 165 kts 223°
2026-04-30 08:15 44.81172 -0.73923 1873 ft 165 kts 224°
2026-04-30 08:15 44.80356 -0.75067 2747 ft 165 kts 225°
2026-04-30 08:15 44.79544 -0.76229 3499 ft 171 kts 225°
2026-04-30 08:15 44.78672 -0.77485 3967 ft 192 kts 224°
2026-04-30 08:16 44.77640 -0.78894 4380 ft 221 kts 219°
2026-04-30 08:16 44.76269 -0.80107 4891 ft 246 kts 201°
2026-04-30 08:16 44.74533 -0.80592 5581 ft 264 kts 179°
2026-04-30 08:16 44.72736 -0.80069 6638 ft 266 kts 158°
2026-04-30 08:17 44.71361 -0.78828 7491 ft 271 kts 137°
2026-04-30 08:17 44.70333 -0.76835 8464 ft 276 kts 121°
2026-04-30 08:17 44.69426 -0.74454 9522 ft 279 kts 120°
2026-04-30 08:17 44.68539 -0.71992 10413 ft 288 kts 119°
2026-04-30 08:18 44.67608 -0.69368 10833 ft 312 kts 119°
2026-04-30 08:18 44.66721 -0.66454 11168 ft 338 kts 110°
2026-04-30 08:18 44.66243 -0.63136 11737 ft 354 kts 98°
2026-04-30 08:18 44.66232 -0.59642 12517 ft 362 kts 89°
2026-04-30 08:19 44.66364 -0.56090 13340 ft 366 kts 89°
2026-04-30 08:19 44.66485 -0.52497 14152 ft 371 kts 90°
2026-04-30 08:19 44.66599 -0.48914 14891 ft 374 kts 90°
2026-04-30 08:19 44.66715 -0.45242 15623 ft 378 kts 90°
2026-04-30 08:20 44.66836 -0.41532 16347 ft 382 kts 90°
2026-04-30 08:20 44.66960 -0.37794 17087 ft 385 kts 90°
2026-04-30 08:20 44.67086 -0.34013 17811 ft 389 kts 90°
2026-04-30 08:20 44.67212 -0.30196 18511 ft 393 kts 90°
2026-04-30 08:21 44.67334 -0.26347 19138 ft 396 kts 90°
2026-04-30 08:21 44.67456 -0.22468 19809 ft 399 kts 90°
2026-04-30 08:21 44.67487 -0.18552 20442 ft 401 kts 96°
2026-04-30 08:21 44.67059 -0.14700 21048 ft 401 kts 106°
2026-04-30 08:22 44.66151 -0.11001 21632 ft 401 kts 116°
2026-04-30 08:22 44.64918 -0.07472 22206 ft 404 kts 118°
2026-04-30 08:22 44.63661 -0.03931 22774 ft 407 kts 118°
2026-04-30 08:22 44.62394 -0.00355 23318 ft 410 kts 118°
2026-04-30 08:23 44.61119 0.03238 23823 ft 413 kts 118°
2026-04-30 08:23 44.59835 0.06865 24272 ft 416 kts 118°
2026-04-30 08:23 44.58545 0.10512 24719 ft 419 kts 118°
2026-04-30 08:23 44.57245 0.14181 25172 ft 421 kts 118°
2026-04-30 08:24 44.55934 0.17869 25613 ft 424 kts 118°
2026-04-30 08:24 44.54630 0.21530 26031 ft 426 kts 118°
2026-04-30 08:24 44.53282 0.25303 26461 ft 429 kts 118°
2026-04-30 08:24 44.51970 0.28964 26885 ft 432 kts 118°
2026-04-30 08:25 44.50636 0.32675 27280 ft 434 kts 118°
2026-04-30 08:25 44.49272 0.36464 27691 ft 437 kts 118°
2026-04-30 08:25 44.47901 0.40279 28084 ft 439 kts 118°
2026-04-30 08:25 44.46524 0.44111 28474 ft 442 kts 118°
2026-04-30 08:26 44.45139 0.47960 28839 ft 444 kts 118°
2026-04-30 08:26 44.43816 0.51890 29196 ft 448 kts 113°
2026-04-30 08:26 44.42820 0.56040 29562 ft 452 kts 109°
2026-04-30 08:26 44.41859 0.60237 29922 ft 454 kts 109°
2026-04-30 08:27 44.40888 0.64454 30314 ft 455 kts 109°
2026-04-30 08:27 44.39915 0.68654 30733 ft 454 kts 110°
2026-04-30 08:27 44.38939 0.72847 31139 ft 454 kts 110°
2026-04-30 08:27 44.37956 0.77047 31523 ft 454 kts 110°
2026-04-30 08:28 44.36977 0.81236 31955 ft 453 kts 110°
2026-04-30 08:28 44.36000 0.85423 32394 ft 453 kts 109°
2026-04-30 08:28 44.35025 0.89599 32814 ft 453 kts 109°
2026-04-30 08:28 44.34046 0.93780 33048 ft 453 kts 109°
2026-04-30 08:29 44.33067 0.97950 33089 ft 451 kts 109°
2026-04-30 08:29 44.31115 1.06250 33089 ft 449 kts 109°
2026-04-30 08:30 44.29161 1.14535 33086 ft 449 kts 110°
2026-04-30 08:30 44.27206 1.22752 33087 ft 450 kts 110°
2026-04-30 08:31 44.25229 1.31033 33084 ft 450 kts 110°
2026-04-30 08:31 44.23254 1.39309 33078 ft 450 kts 110°
2026-04-30 08:32 44.21276 1.47582 33074 ft 450 kts 110°
2026-04-30 08:32 44.19285 1.55851 33070 ft 450 kts 110°
2026-04-30 08:33 44.17288 1.64115 33072 ft 450 kts 110°
2026-04-30 08:33 44.15277 1.72384 33072 ft 451 kts 110°
2026-04-30 08:34 44.13265 1.80655 33072 ft 451 kts 110°
2026-04-30 08:34 44.11248 1.88927 33071 ft 452 kts 110°
2026-04-30 08:35 44.09221 1.97193 33082 ft 452 kts 110°
2026-04-30 08:35 44.07179 2.05466 33072 ft 452 kts 110°
2026-04-30 08:36 44.05136 2.13742 33065 ft 453 kts 110°
2026-04-30 08:36 44.03098 2.21976 33067 ft 454 kts 110°
2026-04-30 08:37 44.01032 2.30271 33061 ft 454 kts 111°
2026-04-30 08:37 43.98961 2.38563 33057 ft 455 kts 111°
2026-04-30 08:38 43.96874 2.46878 33058 ft 456 kts 111°
2026-04-30 08:38 43.94782 2.55195 33059 ft 457 kts 111°
2026-04-30 08:39 43.92680 2.63545 33065 ft 459 kts 111°
2026-04-30 08:39 43.90567 2.71889 33072 ft 459 kts 111°
2026-04-30 08:40 43.88444 2.80242 33079 ft 460 kts 111°
2026-04-30 08:40 43.86312 2.88603 33085 ft 461 kts 112°
2026-04-30 08:41 43.84168 2.96960 33089 ft 461 kts 112°
2026-04-30 08:41 43.82018 3.05350 33096 ft 462 kts 112°
2026-04-30 08:42 43.79856 3.13745 33096 ft 463 kts 112°
2026-04-30 08:42 43.77679 3.22126 33104 ft 463 kts 112°
2026-04-30 08:43 43.75475 3.30492 33101 ft 463 kts 112°
2026-04-30 08:43 43.73292 3.38881 33104 ft 463 kts 112°
2026-04-30 08:44 43.71170 3.47050 32870 ft 453 kts 112°
2026-04-30 08:44 43.70116 3.51100 32730 ft 439 kts 112°
2026-04-30 08:44 43.69094 3.55014 32348 ft 426 kts 112°
2026-04-30 08:44 43.68097 3.58827 31637 ft 419 kts 112°
2026-04-30 08:45 43.67110 3.62581 30908 ft 413 kts 112°
2026-04-30 08:45 43.66150 3.66219 30219 ft 408 kts 112°
2026-04-30 08:45 43.65184 3.69864 29408 ft 403 kts 112°
2026-04-30 08:45 43.64223 3.73495 28630 ft 398 kts 112°
2026-04-30 08:46 43.63275 3.77068 27900 ft 394 kts 112°
2026-04-30 08:46 43.62336 3.80604 27173 ft 390 kts 112°
2026-04-30 08:46 43.61407 3.84094 26467 ft 385 kts 112°
2026-04-30 08:46 43.60487 3.87544 25767 ft 381 kts 112°
2026-04-30 08:47 43.59578 3.90952 25069 ft 377 kts 112°
2026-04-30 08:47 43.58675 3.94332 24376 ft 373 kts 111°
2026-04-30 08:47 43.57742 3.97649 23687 ft 369 kts 116°
2026-04-30 08:47 43.56574 4.00768 22898 ft 364 kts 120°
2026-04-30 08:48 43.55389 4.03835 22161 ft 360 kts 119°
2026-04-30 08:48 43.54215 4.06874 21341 ft 357 kts 119°
2026-04-30 08:48 43.53046 4.09893 20768 ft 352 kts 119°
2026-04-30 08:48 43.51913 4.12835 20264 ft 345 kts 119°
2026-04-30 08:49 43.50799 4.15731 19686 ft 340 kts 119°
2026-04-30 08:49 43.49692 4.18600 19086 ft 337 kts 119°
2026-04-30 08:49 43.48594 4.21438 18502 ft 334 kts 119°
2026-04-30 08:49 43.47527 4.24185 17866 ft 331 kts 119°
2026-04-30 08:50 43.46425 4.27017 17204 ft 327 kts 119°
2026-04-30 08:50 43.45357 4.29757 16613 ft 324 kts 120°
2026-04-30 08:50 43.44298 4.32480 16015 ft 321 kts 119°
2026-04-30 08:50 43.43253 4.35173 15441 ft 318 kts 119°
2026-04-30 08:51 43.42215 4.37840 14879 ft 315 kts 119°
2026-04-30 08:51 43.41184 4.40483 14333 ft 312 kts 120°
2026-04-30 08:51 43.40161 4.43099 13773 ft 309 kts 120°
2026-04-30 08:51 43.39161 4.45654 13183 ft 306 kts 120°
2026-04-30 08:52 43.38143 4.48260 12575 ft 303 kts 120°
2026-04-30 08:52 43.37155 4.50766 11990 ft 301 kts 120°
2026-04-30 08:52 43.36157 4.53276 11413 ft 298 kts 120°
2026-04-30 08:52 43.35170 4.55756 10839 ft 295 kts 120°
2026-04-30 08:53 43.34184 4.58232 10416 ft 294 kts 120°
2026-04-30 08:53 43.33208 4.60686 10076 ft 292 kts 120°
2026-04-30 08:53 43.32272 4.63028 9706 ft 290 kts 120°
2026-04-30 08:53 43.31303 4.65449 9323 ft 287 kts 120°
2026-04-30 08:54 43.30347 4.67839 8942 ft 285 kts 120°
2026-04-30 08:54 43.29421 4.70225 8557 ft 283 kts 115°
2026-04-30 08:54 43.28856 4.72796 8168 ft 281 kts 100°
2026-04-30 08:54 43.28793 4.75470 7786 ft 280 kts 85°
2026-04-30 08:55 43.29190 4.78079 7391 ft 279 kts 75°
2026-04-30 08:55 43.30037 4.80436 7013 ft 279 kts 53°
2026-04-30 08:55 43.31398 4.82056 6655 ft 279 kts 30°
2026-04-30 08:55 43.33237 4.82869 6240 ft 279 kts
2026-04-30 08:56 43.35185 4.82890 5823 ft 280 kts
2026-04-30 08:56 43.37132 4.82858 5373 ft 279 kts
2026-04-30 08:56 43.39075 4.82829 4950 ft 279 kts
2026-04-30 08:56 43.41008 4.82805 4563 ft 277 kts
2026-04-30 08:57 43.42932 4.82804 4174 ft 274 kts
2026-04-30 08:57 43.44714 4.83440 3987 ft 256 kts 30°
2026-04-30 08:57 43.46099 4.84765 4009 ft 234 kts 44°
2026-04-30 08:57 43.47321 4.86155 4002 ft 220 kts 44°
2026-04-30 08:58 43.48459 4.87454 4003 ft 208 kts 45°
2026-04-30 08:58 43.49560 4.88720 3994 ft 205 kts 45°
2026-04-30 08:58 43.50638 4.89965 4012 ft 205 kts 45°
2026-04-30 08:58 43.51731 4.91228 4012 ft 205 kts 45°
2026-04-30 08:59 43.52806 4.92468 4006 ft 196 kts 45°
2026-04-30 08:59 43.53830 4.93646 4013 ft 188 kts 45°
2026-04-30 08:59 43.54828 4.94796 4011 ft 187 kts 45°
2026-04-30 08:59 43.55820 4.95945 4010 ft 186 kts 45°
2026-04-30 09:00 43.56811 4.97096 4018 ft 187 kts 45°
2026-04-30 09:00 43.57721 4.98324 4020 ft 176 kts 63°
2026-04-30 09:00 43.58043 4.99882 4013 ft 167 kts 94°
2026-04-30 09:00 43.57712 5.01405 3789 ft 171 kts 123°
2026-04-30 09:01 43.56915 5.02605 3539 ft 169 kts 133°
2026-04-30 09:01 43.56094 5.03765 3309 ft 170 kts 132°
2026-04-30 09:01 43.55265 5.04952 3050 ft 172 kts 131°
2026-04-30 09:01 43.54426 5.06153 2823 ft 177 kts 132°
2026-04-30 09:02 43.52695 5.08631 2363 ft 178 kts 133°
2026-04-30 09:02 43.51862 5.09820 2093 ft 166 kts 133°
2026-04-30 09:02 43.51115 5.10881 1877 ft 143 kts 132°
2026-04-30 09:03 43.50454 5.11816 1771 ft 132 kts 133°
2026-04-30 09:03 43.49808 5.12709 1532 ft 133 kts 133°
2026-04-30 09:03 43.49160 5.13588 1311 ft 129 kts 133°
2026-04-30 09:03 43.48561 5.14460 1086 ft 123 kts 131°
2026-04-30 09:04 43.47974 5.15321 981 ft 124 kts 131°
2026-04-30 09:04 43.47382 5.16177 828 ft 126 kts 133°
2026-04-30 09:04 43.46771 5.17067 584 ft 128 kts 134°
2026-04-30 09:04 43.46158 5.17968 366 ft 130 kts 136°
2026-04-30 09:05 43.45525 5.18877 231 ft 134 kts 137°
2026-04-30 09:05 43.44868 5.19801 99 ft 135 kts 137°
2026-04-30 09:05 43.44237 5.20689 18 ft 115 kts 132°
2026-04-30 09:05 43.43806 5.21308 34 ft 61 kts 134°
2026-04-30 09:06 43.43539 5.21685 42 ft 52 kts 134°
2026-04-30 09:06 43.43346 5.22000 51 ft 30 kts 103°
2026-04-30 09:06 43.43340 5.22229 50 ft 15 kts 64°
2026-04-30 09:06 43.43432 5.22270 50 ft 16 kts 336°
2026-04-30 09:07 43.43540 5.22187 49 ft 19 kts 328°
2026-04-30 09:07 43.43656 5.22104 46 ft 17 kts 353°
2026-04-30 09:07 43.43737 5.22201 46 ft 15 kts 43°
2026-04-30 09:07 43.43825 5.22214 44 ft 10 kts 343°
2026-04-30 09:08 43.43854 5.22267 45 ft 7 kts 77°
2026-04-30 09:08 43.43861 5.22302 45 ft 0 kts 74°
2026-04-30 09:08 43.43862 5.22308 45 ft 1 kts 73°
2026-04-30 09:08 43.43863 5.22310 45 ft 0 kts 73°